Flag Weather past 2 weeks in Monticello, Kentucky, U.S.A.

Now
45 °F

Clear.


Feels Like: 42 °F
Forecast: 32 / 46 °F
Wind: 6 mph from Northwest

Location: London-Corbin Airport-Magee Field

Current Time: Nov 25, 2014 at 8:58:06 PM

Latest Report: Nov 25, 2014 at 7:53 PM


Visibility: 10 mi

Pressure: 30.14 "Hg

Humidity: 51%

Dew point: 28 °F

Location of MonticelloLocation

Historic Weather in Monticello — Graph

°F

Monticello temperature yesterday

Maximum temperature yesterday: 70 °F (at 11:53 AM)
Minimum temperature yesterday: 45 °F (at 10:53 PM)
Average temperature yesterday: 60 °F

Past Weeks' High & Low Weather Summary

 TemperatureHumidityPressure
High70 °F (Nov 11, 2:53 PM)93% (Nov 12, 5:53 AM)30.52 "Hg (Nov 12, 5:53 AM)
Low16 °F (Nov 19, 12:53 AM)26% (Nov 21, 2:53 PM)29.44 "Hg (Nov 23, 9:53 PM)
Average39 °F62%30.13 "Hg
* Reported Nov 10 7:53 PM — Nov 25 7:53 PM, Monticello, Weather by CustomWeather, © 2014

Note: Actual official high and low records may vary slightly from our data, if they occured in-between our weather recording intervals... More about our weather records

Advertising

Monticello weather history for previous 24 hours

 ConditionsComfort  
Time TempWeatherWind HumidityBarometerVisibility
7:53 PM
Nov 25
45 °FClear.6 mph51%30.14 "Hg10 mi
6:53 PM46 °FClear.5 mph50%30.12 "Hg10 mi
5:53 PM48 °FClear.3 mph46%30.09 "Hg10 mi
4:53 PM50 °FSunny.5 mph41%30.08 "Hg10 mi
3:53 PM52 °FSunny.8 mph34%30.09 "Hg10 mi
2:53 PM54 °FSunny.10 mph31%30.09 "Hg10 mi
1:53 PM53 °FSunny.9 mph35%30.08 "Hg10 mi
12:53 PM52 °FSunny.6 mph35%30.11 "Hg10 mi
11:53 AM51 °FSunny.7 mph39%30.13 "Hg10 mi
10:53 AM49 °FSunny.9 mph44%30.13 "Hg10 mi
9:53 AM47 °FSunny.6 mph54%30.11 "Hg10 mi
8:53 AM41 °FSunny.6 mph70%30.13 "Hg10 mi
7:53 AM33 °FSunny.No wind82%30.11 "Hg10 mi
6:53 AM34 °FClear.No wind79%30.08 "Hg10 mi
5:53 AM32 °FClear.No wind82%30.06 "Hg10 mi
4:53 AM37 °FClear.3 mph73%30.05 "Hg10 mi
3:53 AM37 °FClear.3 mph76%30.05 "Hg10 mi
2:53 AM37 °FClear.No wind73%30.05 "Hg10 mi
1:53 AM40 °FClear.No wind70%30.04 "Hg10 mi
12:53 AM44 °FClear.6 mph60%30.02 "Hg10 mi
11:53 PM
Nov 24
45 °FClear.5 mph58%29.99 "Hg10 mi
10:53 PM45 °FClear.7 mph60%29.97 "Hg10 mi
9:53 PM48 °FClear.10 mph56%29.95 "Hg10 mi
8:53 PM50 °FClear.7 mph52%29.92 "Hg10 mi
Weather by CustomWeather, © 2014

See weather overviewHow to use our weather pages